STARLINK-11610, 63135

Orbit data source: Space-Track

STARLINK-11610, 63135 is a payload satellite owned by SpaceX/Seattle (US) in LEO that was launched on Mon, 03 Mar 2025 UTC via an FALCON 9 launch vehicle from the Air Force Eastern Test Range (AFETR). Payload-class satellites include a variety of spacecraft equipped with specific instruments for various scientific and technological missions. These include communications satellites like Starlink; space stations such as the ISS; scientific satellites like the Hubble; Earth observation satellites from companies like Planet Labs, Umbra, and HawkEye 360; GPS; miniature CubeSats for education and research; and military/defense satellites.

Loading next visibility...
Identifier
63135, 2025-043D
Orbit
LEO
Last TLE update
1 day ago
Origin
Manufacturer
SpaceX/Seattle
Mission
Operational Commercial Communications
Bus & Motor
STARLINK V2M, Unknown motor
Mass
730 kg wet, ~700 kg dry
Launch date (UTC)
2025-03-03 (4 months ago)
Launch vehicle
FALCON 9
Launch site
Air Force Eastern Test Range (AFETR)
Object type
Payload
Rocket body
Debris
Shape & HBR
Box + 2 Pan, 29 m
Radar Cross Section
36.964 m², Large (>1 m²)

Expand to show TLE details & history

TLE from 1 day ago
0 STARLINK-11610
1 63135U 25043D   25169.02096010  .00177069  00000-0  13488-2 0  9999
2 63135  42.9984  46.3236 0003299 264.3680  95.6812 15.70932564 17722
Epoch: 2025-06-18T00:30Z
TLE epoch observation values (Epoch: 2025-06-18T00:30:10.952Z)
Latitude
0.00001°
Longitude
132.26899°
Altitude
356.222 km
Speed
7.697 km/s
True Right ascension
03h 05m 17s
True Declination
0° 00' 00"
Sunlit
Object was in daylight at epoch
Visualization orbit readout
Latitude
6.19372°
Longitude
-61.84638°
Altitude
354.619 km
Speed
7.698 km/s
Apparent Right ascension
11h 00m 41s
Apparent Declination
-35° 56' 41"
Sunlit
Object is in full shadow
Visualization observer readout
Local Sidereal Time
17:03:21
Azimuth
241.247° WSW
Elevation
-22.574°
Doppler factor
1
Orbital elements
Apogee altitude
360.435 km
Perigee altitude
355.99 km
Semi-major axis
6,736.349 km
Eccentricity
0.00033
Inclination
42.9984°
RAAN
46.3236°
Arg. of periapsis
264.368°
True anomaly
Unknown
Mean anomaly
95.6812°
Eccentric anomaly
Unknown
Mean motion
3.9256 °/min
Orbital period
91.71 mins
BSTAR
0.0013488
Loading maneuver chart data...
Loading SW <> Apogee altitude chart data...
Loading historical data...
Loading historical data...
Loading historical data...
Loading historical data...
Loading historical data...
Loading historical data...
Loading historical data...

STARLINK-11610 Visibility forecast

Observer location: undefined°, undefined°

Span
Click to sort rows by Start time (UTC) header in descending order
Start Az.
Max El. time (UTC)
Max El. Az.
Max El.
End time (UTC)
End Az.
4 mins2025-06-19 19:28:54.385Z240.511° WSW2025-06-19 19:29:54.385Z223.234° SW40.368°2025-06-19 19:32:54.385Z74.4° E
4 mins2025-06-19 21:04:54.385Z292.351° WNW2025-06-19 21:06:54.385Z21.381° NNE33.375°2025-06-19 21:08:54.385Z68.017° E
4 mins2025-06-19 22:40:54.385Z294.931° NW2025-06-19 22:42:54.385Z27.666° NE41.767°2025-06-19 22:44:54.385Z93.537° ESE
|